Location: Boiro
(42.6475°N, 8.8834°W)
Time: 15:58:10
(UTC+01:00)

Vanguard 3 - Pass Details

Date: 30 November 2021
Orbit: 508 x 3260 km, 33.3° (Epoch: 20 January)

Event Time Altitude Azimuth Distance (km) Brightness Sun altitude
Rises 05:44:47 0° 228° (SW) 7,143 - -32.5°
Reaches altitude 10° 05:49:52 10° 223° (SW) 6,189 - -31.6°
Exits shadow 05:50:35 12° 222° (SW) 6,056 11.2 -31.4°
Maximum altitude 06:07:52 46° 159° (SSE) 3,603 10.4 -28.3°
Drops below altitude 10° 06:21:18 10° 92° (E) 4,729 12.1 -25.8°
Sets 06:24:33 0° 87° (E) 5,404 12.7 -25.2°
